Weather History for Rush City, MN

Change the Weather History Date:

Monday, April 22, 2013

  Actual Average (KCBG) Record (KCBG)
Temperature  
Mean Temperature 36 °F -  
Max Temperature 41 °F 58 °F 86 °F (1980)
Min Temperature 31 °F 37 °F 26 °F (1967)
Degree Days  
Heating Degree Days 29    
Moisture  
Dew Point 29 °F    
Average Humidity 77    
Maximum Humidity 95    
Minimum Humidity 51    
Precipitation  
Precipitation 0.04 in - - ()
Sea Level Pressure  
Sea Level Pressure 30.17 in    
Wind  
Wind Speed 7 mph (North)    
Max Wind Speed 16 mph    
Max Gust Speed 24 mph    
Visibility 9 miles    
Events Rain    
Averages and records for this station are not official NWS values.
T = Trace of Precipitation, MM = Missing Value Source: NWS Daily Summary

Daily Weather History Graph

Daily Weather History Graph

Search for Another Location

Airport:

Trip Planner

Search our weather history database for the weather conditions in past years. The results will help you decide how hot, cold, wet, or windy it might be!

Date:

Astronomy

Apr. 22, 2013 Rise Set
Actual Time 6:13 AM CDT 8:07 PM CDT
Civil Twilight 5:41 AM CDT 8:39 PM CDT
Nautical Twilight 5:02 AM CDT 9:19 PM CDT
Astronomical Twilight 4:20 AM CDT 10:02 PM CDT
Moon 4:48 PM CDT (4/22) 4:18 AM CDT (4/22)
Length of Visible Light 14h 58m
Length of Day
13h 54m
Waxing Gibbous, 88% of the Moon is Illuminated
Apr 22
Waxing Gibbous
Apr 25
Full
May 2
Last Quarter
May 9
New
May 17
First Quarter

Hourly Weather History & Observations

Time (CDT) Temp. Windchill Dew Point Humidity Pressure Visibility Wind Dir Wind Speed Gust Speed Precip Events Conditions
12:16 AM 37.0 °F 33.3 °F 35.6 °F 95% 30.11 in 10.0 mi WSW 4.6 mph - N/A   Overcast
12:35 AM 36.9 °F 33.1 °F 35.6 °F 95% 30.12 in 10.0 mi West 4.6 mph - N/A   Overcast
12:55 AM 36.0 °F 33.3 °F 34.3 °F 94% 30.13 in 10.0 mi West 3.5 mph - N/A   Overcast
1:16 AM 36.1 °F 31.4 °F 34.7 °F 94% 30.14 in 10.0 mi WNW 5.8 mph - N/A   Overcast
1:35 AM 36.5 °F 32.7 °F 34.7 °F 93% 30.14 in 10.0 mi NW 4.6 mph - N/A   Overcast
1:55 AM 35.8 °F - 34.2 °F 94% 30.14 in 10.0 mi Calm Calm - N/A   Overcast
2:16 AM 35.2 °F 31.2 °F 33.4 °F 93% 30.14 in 10.0 mi WNW 4.6 mph - N/A   Overcast
2:35 AM 35.2 °F 30.3 °F 33.3 °F 92% 30.15 in 10.0 mi WNW 5.8 mph - N/A   Overcast
2:56 AM 35.2 °F 30.3 °F 32.9 °F 91% 30.15 in 10.0 mi WNW 5.8 mph - N/A   Overcast
3:15 AM 34.9 °F 30.8 °F 32.5 °F 91% 30.16 in 10.0 mi WNW 4.6 mph - N/A   Overcast
3:36 AM 35.6 °F 32.8 °F 32.2 °F 87% 30.17 in 10.0 mi WNW 3.5 mph - N/A   Overcast
3:55 AM 34.7 °F 31.8 °F 32.0 °F 90% 30.16 in 10.0 mi NNW 3.5 mph - N/A   Overcast
4:15 AM 35.1 °F 32.2 °F 32.0 °F 89% 30.18 in 10.0 mi NW 3.5 mph - N/A   Overcast
4:35 AM 34.9 °F 30.8 °F 31.1 °F 86% 30.18 in 10.0 mi NW 4.6 mph - N/A   Overcast
4:55 AM 35.8 °F 30.9 °F 29.5 °F 78% 30.19 in 10.0 mi NNW 5.8 mph - N/A   Overcast
5:16 AM 35.2 °F - 29.3 °F 79% 30.19 in 10.0 mi Calm Calm - N/A   Overcast
5:35 AM 34.9 °F 32.0 °F 29.7 °F 81% 30.19 in 10.0 mi NNW 3.5 mph - N/A   Overcast
5:56 AM 34.7 °F 31.8 °F 29.5 °F 81% 30.20 in 10.0 mi NNW 3.5 mph - N/A   Overcast
6:15 AM 34.3 °F 30.2 °F 29.1 °F 81% 30.20 in 10.0 mi North 4.6 mph - N/A   Overcast
6:36 AM 34.5 °F 27.9 °F 28.2 °F 78% 30.20 in 10.0 mi North 8.1 mph - N/A   Mostly Cloudy
6:55 AM 34.0 °F 28.8 °F 28.4 °F 80% 30.21 in 10.0 mi North 5.8 mph - N/A   Scattered Clouds
7:15 AM 33.6 °F 29.4 °F 28.4 °F 81% 30.20 in 10.0 mi North 4.6 mph - N/A   Clear
7:35 AM 34.2 °F 31.2 °F 28.4 °F 79% 30.21 in 10.0 mi North 3.5 mph - N/A   Clear
7:56 AM 34.7 °F 28.1 °F 27.9 °F 76% 30.21 in 10.0 mi North 8.1 mph - N/A   Clear
8:15 AM 34.7 °F 30.6 °F 27.5 °F 75% 30.21 in 10.0 mi NNE 4.6 mph - N/A   Clear
8:35 AM 35.2 °F 27.6 °F 26.8 °F 71% 30.21 in 10.0 mi NNE 10.4 mph - N/A   Clear
8:56 AM 35.8 °F 28.3 °F 26.6 °F 69% 30.20 in 10.0 mi NNE 10.4 mph - N/A   Clear
9:16 AM 36.1 °F 29.3 °F 27.3 °F 70% 30.20 in 10.0 mi NNE 9.2 mph - N/A   Clear
9:35 AM 36.5 °F 29.2 °F 26.6 °F 67% 30.20 in 10.0 mi NNE 10.4 mph - N/A   Clear
9:56 AM 36.1 °F 30.6 °F 27.1 °F 70% 30.22 in 10.0 mi North 6.9 mph - N/A   Clear
10:16 AM 36.7 °F 31.2 °F 27.0 °F 68% 30.22 in 10.0 mi North 6.9 mph - N/A   Clear
10:35 AM 37.9 °F 30.9 °F 26.6 °F 64% 30.22 in 10.0 mi NNE 10.4 mph - N/A   Clear
10:56 AM 37.8 °F 31.3 °F 26.4 °F 64% 30.23 in 10.0 mi NNE 9.2 mph - N/A   Clear
11:16 AM 39.2 °F 33.0 °F 27.3 °F 62% 30.23 in 10.0 mi North 9.2 mph - N/A   Clear
11:35 AM 38.8 °F 33.2 °F 26.8 °F 62% 30.23 in 10.0 mi North 8.1 mph - N/A   Clear
11:56 AM 39.7 °F 34.9 °F 27.0 °F 60% 30.24 in 10.0 mi NNW 6.9 mph - N/A   Scattered Clouds
12:16 PM 39.4 °F 32.3 °F 26.8 °F 61% 30.21 in 10.0 mi North 11.5 mph - N/A   Mostly Cloudy
12:35 PM 40.8 °F 34.5 °F 27.3 °F 59% 30.20 in 10.0 mi North 10.4 mph - N/A   Mostly Cloudy
12:56 PM 41.0 °F 33.5 °F 27.0 °F 57% 30.19 in 10.0 mi North 13.8 mph - N/A   Mostly Cloudy
1:16 PM 41.0 °F 32.8 °F 26.8 °F 57% 30.18 in 10.0 mi North 16.1 mph 19.6 mph N/A   Overcast
1:35 PM 41.0 °F 33.5 °F 26.2 °F 56% 30.17 in 10.0 mi North 13.8 mph - N/A   Overcast
1:56 PM 41.0 °F 34.7 °F 25.3 °F 54% 30.16 in 10.0 mi North 10.4 mph - N/A   Overcast
2:16 PM 40.5 °F 32.8 °F 25.5 °F 55% 30.14 in 10.0 mi North 13.8 mph 19.6 mph N/A   Overcast
2:35 PM 40.1 °F 34.1 °F 24.4 °F 54% 30.16 in 10.0 mi North 9.2 mph - N/A   Overcast
2:56 PM 40.5 °F 35.1 °F 23.9 °F 52% 30.19 in 10.0 mi NNW 8.1 mph - N/A   Overcast
3:16 PM 40.5 °F 34.6 °F 23.5 °F 51% 30.18 in 10.0 mi North 9.2 mph - N/A   Overcast
3:35 PM 40.3 °F 34.9 °F 24.6 °F 54% 30.18 in 10.0 mi NNW 8.1 mph - N/A   Overcast
3:56 PM 39.6 °F 34.0 °F 24.4 °F 55% 30.18 in 10.0 mi North 8.1 mph - N/A   Overcast
4:16 PM 39.2 °F 32.5 °F 25.0 °F 57% 30.15 in 10.0 mi North 10.4 mph - N/A   Overcast
4:35 PM 38.8 °F 31.6 °F 25.0 °F 58% 30.14 in 10.0 mi North 11.5 mph - N/A   Overcast
4:56 PM 38.7 °F 32.9 °F 24.4 °F 57% 30.14 in 10.0 mi North 8.1 mph - N/A   Overcast
5:16 PM 38.7 °F 31.8 °F 23.4 °F 54% 30.15 in 10.0 mi North 10.4 mph - N/A   Overcast
5:35 PM 37.2 °F 28.7 °F 25.5 °F 63% 30.14 in 10.0 mi North 13.8 mph 24.2 mph N/A   Overcast
5:56 PM 36.1 °F 26.9 °F 26.4 °F 68% 30.15 in 10.0 mi North 15.0 mph 18.4 mph N/A   Overcast
6:16 PM 35.6 °F 26.2 °F 27.3 °F 72% 30.16 in 10.0 mi North 15.0 mph 20.7 mph N/A Rain Light Rain
6:35 PM 33.1 °F 23.0 °F 29.7 °F 87% 30.18 in 7.0 mi North 15.0 mph 20.7 mph N/A Rain Light Rain
6:56 PM 32.2 °F 23.2 °F 30.0 °F 92% 30.17 in 5.0 mi North 11.5 mph - N/A Rain Light Rain
7:16 PM 32.0 °F 21.6 °F 30.2 °F 93% 30.16 in 4.0 mi North 15.0 mph 19.6 mph N/A   Overcast
7:35 PM 32.0 °F 22.1 °F 30.2 °F 93% 30.15 in 2.5 mi North 13.8 mph 21.9 mph N/A   Overcast
7:56 PM 32.0 °F 23.0 °F 30.6 °F 94% 30.16 in 3.0 mi North 11.5 mph - N/A   Overcast
8:15 PM 32.0 °F 23.0 °F 30.6 °F 94% 30.17 in 4.0 mi North 11.5 mph - N/A   Overcast
8:36 PM 32.0 °F 23.6 °F 30.4 °F 94% 30.17 in 5.0 mi North 10.4 mph 18.4 mph N/A   Overcast
8:55 PM 32.0 °F 22.1 °F 30.2 °F 93% 30.16 in 5.0 mi North 13.8 mph 18.4 mph N/A   Overcast
9:16 PM 32.0 °F 22.1 °F 30.4 °F 94% 30.16 in 7.0 mi North 13.8 mph - N/A   Overcast
9:35 PM 32.0 °F 23.6 °F 30.2 °F 93% 30.17 in 10.0 mi North 10.4 mph - N/A   Overcast
9:55 PM 32.0 °F 23.0 °F 30.2 °F 93% 30.17 in 7.0 mi North 11.5 mph - N/A   Overcast
10:16 PM 32.0 °F 23.6 °F 30.2 °F 93% 30.15 in 5.0 mi North 10.4 mph 18.4 mph N/A   Overcast
10:35 PM 32.0 °F 22.1 °F 30.4 °F 94% 30.15 in 5.0 mi North 13.8 mph 19.6 mph N/A   Overcast
10:56 PM 31.8 °F 22.3 °F 30.2 °F 94% 30.14 in 7.0 mi North 12.7 mph 17.3 mph N/A   Overcast
11:15 PM 32.0 °F 22.5 °F 30.2 °F 93% 30.14 in 7.0 mi North 12.7 mph 18.4 mph N/A   Overcast
11:36 PM 31.8 °F 23.9 °F 30.2 °F 94% 30.15 in 7.0 mi North 9.2 mph - N/A   Overcast
11:56 PM 31.8 °F 23.9 °F 30.2 °F 94% 30.15 in 7.0 mi NNW 9.2 mph - N/A   Overcast